PBD9628 UUWW-ULAA

Flight info

Callsign PBD9628
Flight time N/A
Altitude 37000
Route RILPO3D RILPO T753 DEGOP/K0839F360 T747 TIPNA P988 GITOT/K0839F370 P988 RUPAD T825 ABELU ABELU2L
Aircraft B738/M-SDE2E3FGHIRWXY/LB1

Departure

Time 2026-05-04 17:51
Airport Vnukovo International Airport (UUWW)

Arrival

Time N/A
Airport Talagi Airport (ULAA)
Time Latitude Longitude Altitude Speed Heading
2026-05-04 17:14 55.60007 37.28186 690 ft 0 kts 355°
2026-05-04 17:46 55.60019 37.28184 690 ft 5 kts 355°
2026-05-04 17:46 55.60078 37.28252 690 ft 17 kts 79°
2026-05-04 17:46 55.60134 37.28503 690 ft 27 kts 47°
2026-05-04 17:47 55.60184 37.28751 690 ft 22 kts 132°
2026-05-04 17:47 55.60057 37.28889 690 ft 23 kts 166°
2026-05-04 17:47 55.59912 37.28950 690 ft 9 kts 166°
2026-05-04 17:47 55.59908 37.28952 690 ft 0 kts 166°
2026-05-04 17:48 55.59902 37.28955 690 ft 4 kts 166°
2026-05-04 17:48 55.59826 37.28978 690 ft 16 kts 187°
2026-05-04 17:48 55.59747 37.28781 690 ft 22 kts 248°
2026-05-04 17:49 55.59737 37.28733 690 ft 0 kts 248°
2026-05-04 17:50 55.59698 37.28564 690 ft 48 kts 247°
2026-05-04 17:50 55.59475 37.27564 690 ft 123 kts 248°
2026-05-04 17:50 55.59089 37.25810 800 ft 172 kts 248°
2026-05-04 17:51 55.58667 37.23930 1655 ft 168 kts 243°
2026-05-04 17:51 55.57999 37.22323 2587 ft 163 kts 231°
2026-05-04 17:51 55.57293 37.20834 3273 ft 161 kts 236°
2026-05-04 17:51 55.56617 37.19180 3734 ft 173 kts 238°
2026-05-04 17:52 55.55918 37.17387 4171 ft 187 kts 238°
2026-05-04 17:52 55.55158 37.15367 4596 ft 204 kts 243°
2026-05-04 17:52 55.54699 37.12960 5058 ft 219 kts 266°
2026-05-04 17:52 55.54726 37.10262 5743 ft 225 kts 275°
2026-05-04 17:53 55.55122 37.07598 6475 ft 231 kts 294°
2026-05-04 17:53 55.56014 37.05238 7282 ft 235 kts 309°
2026-05-04 17:53 55.57274 37.03376 7897 ft 248 kts 329°
2026-05-04 17:53 55.58962 37.02534 8580 ft 260 kts 353°
2026-05-04 17:54 55.60789 37.02519 9254 ft 266 kts 357°
2026-05-04 17:54 55.62629 37.02573 9810 ft 271 kts 357°
2026-05-04 17:54 55.64508 37.02426 10005 ft 270 kts 347°
2026-05-04 17:54 55.66343 37.01471 10011 ft 283 kts 335°
2026-05-04 17:55 55.68144 37.00063 10013 ft 284 kts 332°
2026-05-04 17:55 55.69952 36.98582 10040 ft 285 kts 332°
2026-05-04 17:55 55.71768 36.97151 10003 ft 285 kts 333°
2026-05-04 17:55 55.73592 36.95772 10049 ft 288 kts 334°
2026-05-04 17:56 55.75460 36.94359 10365 ft 300 kts 334°
2026-05-04 17:56 55.77329 36.92934 11409 ft 292 kts 334°
2026-05-04 17:56 55.79168 36.91526 12262 ft 292 kts 334°
2026-05-04 17:56 55.81071 36.90120 12727 ft 297 kts 338°
2026-05-04 17:57 55.83102 36.89293 12902 ft 314 kts 353°
2026-05-04 17:57 55.85331 36.89256 13461 ft 326 kts 359°
2026-05-04 17:57 55.87612 36.89465 13845 ft 331 kts
2026-05-04 17:57 55.89911 36.89696 13861 ft 330 kts
2026-05-04 17:58 55.92188 36.89885 13881 ft 328 kts 359°
2026-05-04 17:58 55.94466 36.90028 13865 ft 328 kts 359°
2026-05-04 17:58 55.96725 36.90141 13852 ft 327 kts 359°
2026-05-04 17:58 55.98993 36.90508 13845 ft 331 kts
2026-05-04 17:59 56.01176 36.91943 14035 ft 348 kts 26°
2026-05-04 17:59 56.03238 36.94256 14673 ft 351 kts 31°
2026-05-04 17:59 56.07227 36.99171 14855 ft 347 kts 32°
2026-05-04 18:00 56.09191 37.01576 14867 ft 344 kts 31°
2026-05-04 18:00 56.11169 37.04065 14836 ft 346 kts 34°
2026-05-04 18:00 56.13006 37.06809 14969 ft 355 kts 39°
2026-05-04 18:00 56.14798 37.09886 15596 ft 360 kts 42°
2026-05-04 18:01 56.16543 37.13064 15850 ft 357 kts 43°
2026-05-04 18:01 56.18261 37.16266 15867 ft 353 kts 44°
2026-05-04 18:01 56.19939 37.19402 15873 ft 353 kts 43°
2026-05-04 18:02 56.23369 37.25712 15859 ft 352 kts 41°
2026-05-04 18:02 56.25206 37.28603 15860 ft 351 kts 33°
2026-05-04 18:02 56.27294 37.30914 16082 ft 359 kts 24°
2026-05-04 18:02 56.29537 37.32818 16689 ft 360 kts 20°
2026-05-04 18:03 56.31810 37.34561 16851 ft 358 kts 19°
2026-05-04 18:03 56.34114 37.36267 16856 ft 353 kts 19°
2026-05-04 18:03 56.36360 37.37947 16855 ft 353 kts 19°
2026-05-04 18:03 56.38589 37.39840 16853 ft 356 kts 26°
2026-05-04 18:04 56.40649 37.42426 16949 ft 368 kts 37°
2026-05-04 18:04 56.42519 37.45526 17563 ft 372 kts 41°
2026-05-04 18:04 56.46109 37.52219 17848 ft 369 kts 44°
2026-05-04 18:05 56.47861 37.55561 17851 ft 366 kts 43°
2026-05-04 18:05 56.49620 37.58889 17848 ft 367 kts 43°
2026-05-04 18:05 56.51386 37.62198 17848 ft 367 kts 43°
2026-05-04 18:05 56.53152 37.65485 17849 ft 367 kts 43°
2026-05-04 18:06 56.56717 37.72091 17846 ft 367 kts 43°
2026-05-04 18:06 56.58488 37.75372 17848 ft 366 kts 43°
2026-05-04 18:06 56.60286 37.78707 17843 ft 367 kts 43°
2026-05-04 18:07 56.62052 37.81986 17843 ft 366 kts 43°
2026-05-04 18:07 56.63846 37.85298 17854 ft 373 kts 42°
2026-05-04 18:07 56.65712 37.88635 18235 ft 384 kts 41°
2026-05-04 18:07 56.67649 37.92047 18907 ft 387 kts 41°
2026-05-04 18:08 56.69587 37.95452 19556 ft 391 kts 41°
2026-05-04 18:08 56.71540 37.98901 20141 ft 395 kts 41°
2026-05-04 18:08 56.73502 38.02383 20753 ft 399 kts 41°
2026-05-04 18:08 56.75491 38.05929 21333 ft 403 kts 41°
2026-05-04 18:09 56.79517 38.13140 22473 ft 410 kts 41°
2026-05-04 18:09 56.83587 38.20460 23619 ft 415 kts 41°
2026-05-04 18:10 56.85633 38.24147 24100 ft 420 kts 41°
2026-05-04 18:10 56.87717 38.27892 24642 ft 423 kts 40°
2026-05-04 18:10 56.89885 38.31549 25126 ft 426 kts 38°
2026-05-04 18:10 56.92108 38.35070 25591 ft 429 kts 37°
2026-05-04 18:11 56.94406 38.38607 26109 ft 432 kts 36°
2026-05-04 18:11 56.96699 38.42114 26589 ft 435 kts 36°
2026-05-04 18:11 56.99015 38.45668 27066 ft 438 kts 36°
2026-05-04 18:11 57.01335 38.49253 27546 ft 440 kts 36°
2026-05-04 18:12 57.03664 38.52874 27973 ft 444 kts 37°
2026-05-04 18:12 57.06012 38.56549 28410 ft 447 kts 37°
2026-05-04 18:12 57.08399 38.60303 28832 ft 450 kts 37°
2026-05-04 18:12 57.10784 38.64069 29211 ft 454 kts 37°
2026-05-04 18:13 57.13196 38.67891 29664 ft 456 kts 37°
2026-05-04 18:13 57.15580 38.71677 30011 ft 460 kts 37°
2026-05-04 18:13 57.20456 38.79448 30799 ft 465 kts 37°
2026-05-04 18:14 57.22868 38.83306 31211 ft 466 kts 37°
2026-05-04 18:14 57.25322 38.87238 31599 ft 469 kts 38°
2026-05-04 18:14 57.27795 38.91206 31957 ft 471 kts 38°
2026-05-04 18:15 57.32725 38.99139 32671 ft 475 kts 38°
2026-05-04 18:15 57.37635 39.07077 33803 ft 468 kts 38°
2026-05-04 18:15 57.40089 39.11054 34257 ft 467 kts 38°
2026-05-04 18:16 57.42531 39.15019 34711 ft 464 kts 38°
2026-05-04 18:16 57.44928 39.18920 35126 ft 462 kts 38°
2026-05-04 18:16 57.47348 39.22866 35420 ft 462 kts 37°
2026-05-04 18:17 57.52134 39.30667 36020 ft 461 kts 37°
2026-05-04 18:17 57.54544 39.34594 36334 ft 460 kts 37°
2026-05-04 18:17 57.59339 39.42420 36809 ft 461 kts 37°
2026-05-04 18:18 57.61747 39.46356 36806 ft 463 kts 37°
2026-05-04 18:18 57.66551 39.54242 36808 ft 460 kts 37°
2026-05-04 18:19 57.73730 39.66089 36810 ft 461 kts 38°
2026-05-04 18:19 57.78516 39.74028 36806 ft 460 kts 38°
2026-05-04 18:20 57.83474 39.81335 36801 ft 455 kts 27°
2026-05-04 18:20 57.86309 39.83826 36805 ft 448 kts 14°
2026-05-04 18:20 57.89317 39.85205 36802 ft 442 kts
2026-05-04 18:21 57.95359 39.85677 36797 ft 435 kts 352°
2026-05-04 18:21 58.01325 39.83987 36799 ft 432 kts 345°
2026-05-04 18:22 58.07173 39.81595 36467 ft 434 kts 344°
2026-05-04 18:22 58.10106 39.80375 36229 ft 432 kts 344°
2026-05-04 18:22 58.13041 39.79181 35992 ft 432 kts 344°
2026-05-04 18:23 58.16008 39.78001 35817 ft 431 kts 345°
2026-05-04 18:23 58.18919 39.76866 35805 ft 431 kts 345°
2026-05-04 18:23 58.24795 39.74610 35786 ft 436 kts 345°
2026-05-04 18:24 58.30725 39.72361 35786 ft 435 kts 345°
2026-05-04 18:24 58.36636 39.70119 35779 ft 435 kts 345°
2026-05-04 18:25 58.42542 39.67869 35776 ft 436 kts 344°
2026-05-04 18:25 58.48494 39.65591 35778 ft 436 kts 344°
2026-05-04 18:26 58.54399 39.63324 35769 ft 436 kts 344°
2026-05-04 18:26 58.60355 39.61028 35764 ft 437 kts 344°
2026-05-04 18:27 58.66316 39.58725 35768 ft 436 kts 344°
2026-05-04 18:27 58.72247 39.56437 35761 ft 438 kts 345°
2026-05-04 18:28 58.78278 39.54868 35754 ft 440 kts 350°
2026-05-04 18:28 58.84377 39.53872 35760 ft 444 kts 351°
2026-05-04 18:29 58.90501 39.52964 35756 ft 444 kts 351°
2026-05-04 18:29 58.96637 39.52036 35753 ft 443 kts 350°
2026-05-04 18:30 59.05873 39.50557 35749 ft 444 kts 350°
2026-05-04 18:31 59.12016 39.49543 35747 ft 446 kts 350°
2026-05-04 18:31 59.18189 39.48519 35726 ft 444 kts 350°
2026-05-04 18:32 59.24301 39.47502 35726 ft 442 kts 350°
2026-05-04 18:32 59.30409 39.46476 35717 ft 444 kts 350°
2026-05-04 18:33 59.36525 39.45448 35723 ft 444 kts 349°
2026-05-04 18:33 59.42696 39.44403 35717 ft 445 kts 349°
2026-05-04 18:34 59.48826 39.43365 35713 ft 443 kts 349°
2026-05-04 18:34 59.54962 39.42316 35719 ft 445 kts 349°
2026-05-04 18:35 59.61094 39.41269 35716 ft 446 kts 349°
2026-05-04 18:35 59.67220 39.40223 35712 ft 445 kts 349°
2026-05-04 18:36 59.73389 39.39164 35700 ft 445 kts 349°
2026-05-04 18:36 59.79542 39.38103 35692 ft 445 kts 349°
2026-05-04 18:37 59.85657 39.36887 35687 ft 444 kts 347°
2026-05-04 18:37 59.91806 39.35403 35688 ft 444 kts 347°
2026-05-04 18:38 59.97928 39.33884 35685 ft 443 kts 346°
2026-05-04 18:38 60.04002 39.32394 35681 ft 443 kts 346°
2026-05-04 18:39 60.10120 39.30903 35676 ft 443 kts 346°
2026-05-04 18:39 60.16242 39.29423 35672 ft 444 kts 346°
2026-05-04 18:40 60.22358 39.27930 35671 ft 444 kts 345°
2026-05-04 18:40 60.28458 39.26314 35672 ft 443 kts 345°
2026-05-04 18:41 60.34571 39.24643 35667 ft 442 kts 345°
2026-05-04 18:41 60.40651 39.22970 35663 ft 445 kts 345°
2026-05-04 18:42 60.46735 39.21308 35657 ft 444 kts 345°
2026-05-04 18:42 60.52906 39.19621 35656 ft 445 kts 345°
2026-05-04 18:43 60.59005 39.17954 35658 ft 444 kts 345°
2026-05-04 18:43 60.65111 39.16272 35657 ft 445 kts 344°
2026-05-04 18:44 60.71217 39.14589 35650 ft 446 kts 344°
2026-05-04 18:44 60.77393 39.12874 35647 ft 447 kts 344°
2026-05-04 18:45 60.83521 39.11171 35641 ft 446 kts 344°
2026-05-04 18:45 60.89668 39.09456 35622 ft 445 kts 344°
2026-05-04 18:46 60.95822 39.07729 35616 ft 448 kts 344°
2026-05-04 18:46 61.01978 39.06001 35616 ft 446 kts 344°
2026-05-04 18:47 61.08129 39.04263 35620 ft 447 kts 344°
2026-05-04 18:47 61.14278 39.02520 35624 ft 449 kts 343°
2026-05-04 18:48 61.20481 39.00756 35625 ft 447 kts 343°
2026-05-04 18:48 61.26660 38.99224 35616 ft 451 kts 348°
2026-05-04 18:49 61.33022 38.99606 35621 ft 466 kts 359°
2026-05-04 18:49 61.39415 39.01851 35620 ft 469 kts
2026-05-04 18:50 61.45755 39.04558 35624 ft 469 kts
2026-05-04 18:50 61.52138 39.07294 35621 ft 470 kts
2026-05-04 18:51 61.58550 39.09979 35620 ft 469 kts
2026-05-04 18:51 61.64942 39.12609 35617 ft 471 kts
2026-05-04 18:52 61.71411 39.15248 35617 ft 473 kts
2026-05-04 18:52 61.77831 39.17877 35614 ft 470 kts
2026-05-04 18:53 61.84225 39.20490 35607 ft 473 kts
2026-05-04 18:53 61.90646 39.23143 35591 ft 469 kts
2026-05-04 18:54 61.97046 39.25967 35599 ft 470 kts
2026-05-04 18:54 62.03466 39.28917 35595 ft 471 kts
2026-05-04 18:55 62.09842 39.31867 35587 ft 471 kts
2026-05-04 18:55 62.19441 39.36309 35533 ft 473 kts
2026-05-04 18:56 62.22663 39.37796 35638 ft 474 kts
2026-05-04 18:56 62.25847 39.39270 35597 ft 468 kts
2026-05-04 18:56 62.32194 39.42213 35606 ft 470 kts
2026-05-04 18:57 62.38590 39.45175 35613 ft 469 kts
2026-05-04 18:57 62.44948 39.48140 35611 ft 469 kts
2026-05-04 18:58 62.51306 39.51114 35616 ft 472 kts
2026-05-04 18:58 62.57671 39.54114 35622 ft 469 kts
2026-05-04 18:59 62.63999 39.57110 35619 ft 469 kts
2026-05-04 18:59 62.70367 39.60135 35621 ft 469 kts
2026-05-04 19:00 62.76704 39.63157 35614 ft 469 kts
2026-05-04 19:00 62.83056 39.66200 35610 ft 469 kts
2026-05-04 19:01 62.89447 39.69267 35619 ft 471 kts
2026-05-04 19:01 62.95805 39.72347 35554 ft 471 kts
2026-05-04 19:02 62.98975 39.73879 35341 ft 473 kts
2026-05-04 19:02 63.02173 39.75433 35133 ft 471 kts
2026-05-04 19:02 63.05341 39.76980 34931 ft 469 kts
2026-05-04 19:02 63.08562 39.78553 34721 ft 471 kts
2026-05-04 19:03 63.11747 39.80107 34506 ft 472 kts
2026-05-04 19:03 63.14964 39.81683 34278 ft 472 kts
2026-05-04 19:03 63.18148 39.83246 34059 ft 472 kts
2026-05-04 19:03 63.21361 39.84826 33845 ft 475 kts
2026-05-04 19:04 63.24549 39.86397 33600 ft 474 kts
2026-05-04 19:04 63.27777 39.87996 32953 ft 475 kts
2026-05-04 19:04 63.30984 39.89584 32194 ft 476 kts
2026-05-04 19:04 63.34200 39.91174 31393 ft 479 kts
2026-05-04 19:05 63.37428 39.92771 30483 ft 483 kts
2026-05-04 19:05 63.40728 39.94405 29496 ft 486 kts
2026-05-04 19:05 63.43985 39.96041 28751 ft 484 kts
2026-05-04 19:05 63.47247 39.97966 28046 ft 484 kts
2026-05-04 19:06 63.50431 40.00175 27359 ft 482 kts 11°
2026-05-04 19:06 63.53579 40.02547 26689 ft 479 kts 12°
2026-05-04 19:06 63.56690 40.04982 26010 ft 476 kts 12°
2026-05-04 19:06 63.59801 40.07456 25333 ft 472 kts 13°
2026-05-04 19:07 63.62863 40.09896 24665 ft 469 kts 13°
2026-05-04 19:07 63.65896 40.12306 23973 ft 465 kts 13°
2026-05-04 19:07 63.68918 40.14610 23303 ft 451 kts 10°
2026-05-04 19:07 63.71859 40.16338 22643 ft 433 kts
2026-05-04 19:08 63.74811 40.16739 22020 ft 417 kts 349°
2026-05-04 19:08 63.77618 40.15823 21377 ft 407 kts 340°
2026-05-04 19:08 63.80344 40.14352 20742 ft 402 kts 338°
2026-05-04 19:08 63.83028 40.12686 20109 ft 399 kts 336°
2026-05-04 19:09 63.85664 40.10985 19489 ft 396 kts 337°
2026-05-04 19:09 63.88293 40.09278 18863 ft 393 kts 337°
2026-05-04 19:09 63.90893 40.07600 18276 ft 391 kts 338°
2026-05-04 19:09 63.93479 40.05942 17670 ft 388 kts 338°
2026-05-04 19:10 63.96079 40.04289 17058 ft 386 kts 338°
2026-05-04 19:10 63.98638 40.02676 16450 ft 384 kts 339°
2026-05-04 19:10 64.01177 40.01085 15846 ft 381 kts 339°
2026-05-04 19:10 64.03722 39.99498 15212 ft 379 kts 340°
2026-05-04 19:11 64.06253 39.97919 14610 ft 376 kts 340°
2026-05-04 19:11 64.08740 39.96366 14005 ft 373 kts 340°
2026-05-04 19:11 64.11214 39.94817 13378 ft 370 kts 341°
2026-05-04 19:11 64.13694 39.93264 12794 ft 367 kts 341°
2026-05-04 19:12 64.16123 39.91738 12185 ft 365 kts 341°
2026-05-04 19:12 64.20974 39.88683 10994 ft 359 kts 342°
2026-05-04 19:12 64.23347 39.87184 10459 ft 356 kts 342°
2026-05-04 19:13 64.25713 39.85692 10140 ft 346 kts 342°
2026-05-04 19:13 64.27960 39.84275 9982 ft 332 kts 342°
2026-05-04 19:13 64.30146 39.82896 9860 ft 318 kts 342°
2026-05-04 19:13 64.32259 39.81556 9548 ft 312 kts 342°
2026-05-04 19:14 64.34316 39.80242 9108 ft 311 kts 342°
2026-05-04 19:14 64.36384 39.78918 8699 ft 309 kts 342°
2026-05-04 19:14 64.38447 39.77596 8287 ft 301 kts 342°
2026-05-04 19:14 64.40437 39.76324 7895 ft 293 kts 342°
2026-05-04 19:15 64.42364 39.75240 7504 ft 287 kts 349°
2026-05-04 19:15 64.44336 39.75161 7133 ft 286 kts 13°
2026-05-04 19:15 64.46161 39.76848 6799 ft 282 kts 31°
2026-05-04 19:15 64.47845 39.79190 6421 ft 281 kts 33°
2026-05-04 19:16 64.49473 39.81544 6066 ft 280 kts 33°
2026-05-04 19:16 64.51153 39.83881 5701 ft 279 kts 33°
2026-05-04 19:16 64.52825 39.86120 5336 ft 278 kts 32°
2026-05-04 19:16 64.54483 39.88286 4981 ft 277 kts 32°
2026-05-04 19:17 64.56168 39.90470 4681 ft 273 kts 32°
2026-05-04 19:17 64.57777 39.92563 4580 ft 263 kts 33°
2026-05-04 19:17 64.59347 39.94638 4570 ft 257 kts 33°
2026-05-04 19:17 64.60878 39.96648 4546 ft 247 kts 33°
2026-05-04 19:18 64.62277 39.98847 4540 ft 244 kts 47°
2026-05-04 19:18 64.63226 40.02036 4422 ft 236 kts 76°
2026-05-04 19:18 64.63373 40.05678 4182 ft 223 kts 104°
2026-05-04 19:18 64.63018 40.09121 3954 ft 214 kts 107°
2026-05-04 19:19 64.62769 40.12458 3730 ft 204 kts 102°
2026-05-04 19:19 64.62627 40.15605 3519 ft 192 kts 100°
2026-05-04 19:19 64.62505 40.18616 3323 ft 181 kts 101°
2026-05-04 19:19 64.62380 40.21447 3151 ft 170 kts 102°
2026-05-04 19:20 64.62260 40.24092 3056 ft 160 kts 102°
2026-05-04 19:20 64.62143 40.26633 2941 ft 158 kts 102°
2026-05-04 19:20 64.62027 40.29168 2828 ft 157 kts 102°
2026-05-04 19:20 64.61910 40.31714 2714 ft 157 kts 101°
2026-05-04 19:21 64.61796 40.34212 2595 ft 157 kts 101°
2026-05-04 19:21 64.61679 40.36752 2437 ft 154 kts 101°
2026-05-04 19:21 64.61568 40.39202 2296 ft 154 kts 101°
2026-05-04 19:21 64.61453 40.41687 2163 ft 153 kts 101°
2026-05-04 19:22 64.61342 40.44059 2052 ft 142 kts 101°
2026-05-04 19:22 64.61238 40.46316 1943 ft 138 kts 101°
2026-05-04 19:22 64.61130 40.48558 1883 ft 139 kts 102°
2026-05-04 19:22 64.61034 40.50673 1723 ft 127 kts 101°
2026-05-04 19:23 64.60937 40.52692 1467 ft 124 kts 101°
2026-05-04 19:23 64.60844 40.54676 1340 ft 128 kts 101°
2026-05-04 19:23 64.60745 40.56724 1170 ft 130 kts 100°
2026-05-04 19:23 64.60626 40.58854 971 ft 133 kts 99°
2026-05-04 19:24 64.60546 40.60951 754 ft 128 kts 96°
2026-05-04 19:24 64.60449 40.63025 627 ft 133 kts 98°
2026-05-04 19:24 64.60335 40.65193 404 ft 138 kts 99°
2026-05-04 19:24 64.60245 40.67348 244 ft 133 kts 99°
2026-05-04 19:25 64.60139 40.69458 72 ft 129 kts 98°
2026-05-04 19:25 64.60061 40.71468 229 ft 122 kts 96°
2026-05-04 19:25 64.59961 40.73592 441 ft 147 kts 98°
2026-05-04 19:25 64.59847 40.76027 945 ft 158 kts 97°
2026-05-04 19:26 64.59750 40.78519 1676 ft 161 kts 90°
2026-05-04 19:26 64.60171 40.81047 2283 ft 186 kts 58°
2026-05-04 19:26 64.61285 40.82933 2809 ft 217 kts 27°
2026-05-04 19:26 64.62866 40.83447 2985 ft 255 kts 354°
2026-05-04 19:27 64.64562 40.81650 2970 ft 279 kts 317°
2026-05-04 19:27 64.65638 40.77967 2970 ft 279 kts 288°
2026-05-04 19:27 64.66226 40.73672 2959 ft 279 kts 283°
2026-05-04 19:27 64.66833 40.69373 2956 ft 279 kts 288°
2026-05-04 19:28 64.67587 40.65202 2958 ft 280 kts 292°
2026-05-04 19:28 64.68433 40.61126 2957 ft 282 kts 295°
2026-05-04 19:28 64.69323 40.57037 2954 ft 280 kts 295°
2026-05-04 19:28 64.70195 40.53040 2949 ft 275 kts 295°
2026-05-04 19:29 64.70984 40.49124 2947 ft 259 kts 287°
2026-05-04 19:29 64.71405 40.45171 2957 ft 245 kts 274°
2026-05-04 19:29 64.71572 40.41214 2948 ft 244 kts 270°
2026-05-04 19:29 64.71699 40.37316 2939 ft 235 kts 270°
2026-05-04 19:30 64.71801 40.33561 2784 ft 232 kts 263°
2026-05-04 19:30 64.71506 40.29940 2522 ft 222 kts 237°
2026-05-04 19:30 64.70607 40.27196 2281 ft 210 kts 212°
2026-05-04 19:30 64.69426 40.25312 2028 ft 204 kts 199°
2026-05-04 19:31 64.68125 40.24389 1933 ft 191 kts 180°
2026-05-04 19:31 64.66808 40.24139 1938 ft 188 kts 178°
2026-05-04 19:31 64.65560 40.23866 1933 ft 173 kts 180°
2026-05-04 19:31 64.64406 40.23574 1931 ft 162 kts 176°
2026-05-04 19:32 64.63325 40.24000 1936 ft 157 kts 148°
2026-05-04 19:32 64.62593 40.25780 1936 ft 157 kts 118°
2026-05-04 19:32 64.62238 40.28177 1935 ft 157 kts 109°
2026-05-04 19:32 64.62003 40.30708 1936 ft 160 kts 103°
2026-05-04 19:33 64.61854 40.33252 1955 ft 155 kts 101°
2026-05-04 19:33 64.61739 40.35653 1935 ft 148 kts 101°
2026-05-04 19:33 64.61621 40.38038 1942 ft 149 kts 100°
2026-05-04 19:33 64.61510 40.40433 1941 ft 149 kts 101°
2026-05-04 19:34 64.61404 40.42772 1947 ft 139 kts 101°
2026-05-04 19:34 64.61298 40.45015 1943 ft 139 kts 102°
2026-05-04 19:34 64.61199 40.47160 1958 ft 128 kts 102°
2026-05-04 19:34 64.61101 40.49198 1835 ft 127 kts 102°
2026-05-04 19:35 64.61007 40.51211 1620 ft 123 kts 101°
2026-05-04 19:35 64.60917 40.53166 1474 ft 124 kts 101°
2026-05-04 19:35 64.60815 40.55215 1307 ft 126 kts 99°
2026-05-04 19:35 64.60718 40.57226 1105 ft 128 kts 99°
2026-05-04 19:36 64.60628 40.59235 950 ft 125 kts 96°
2026-05-04 19:36 64.60523 40.61308 785 ft 132 kts 102°
2026-05-04 19:36 64.60422 40.63437 584 ft 130 kts 96°
2026-05-04 19:36 64.60326 40.65545 397 ft 129 kts 99°
2026-05-04 19:37 64.60215 40.67636 218 ft 130 kts 95°
2026-05-04 19:37 64.60129 40.69733 100 ft 134 kts 97°
2026-05-04 19:37 64.60017 40.71968 635 ft 150 kts 103°
2026-05-04 19:37 64.59895 40.74371 1477 ft 150 kts 100°
2026-05-04 19:38 64.59924 40.76730 2139 ft 160 kts 80°
2026-05-04 19:38 64.60651 40.79012 2576 ft 197 kts 42°
2026-05-04 19:38 64.62026 40.80214 2970 ft 231 kts
2026-05-04 19:38 64.63724 40.79502 2959 ft 270 kts 332°
2026-05-04 19:39 64.65119 40.76492 2963 ft 279 kts 299°
2026-05-04 19:39 64.65913 40.72470 2949 ft 264 kts 287°
2026-05-04 19:39 64.66535 40.68581 2943 ft 250 kts 289°
2026-05-04 19:39 64.67226 40.65002 2947 ft 241 kts 294°
2026-05-04 19:40 64.68007 40.61580 2942 ft 237 kts 297°
2026-05-04 19:40 64.68820 40.58239 2947 ft 237 kts 297°
2026-05-04 19:40 64.69628 40.54935 2937 ft 236 kts 297°
2026-05-04 19:40 64.70451 40.51540 2948 ft 246 kts 297°
2026-05-04 19:41 64.71204 40.47746 3408 ft 267 kts 283°
2026-05-04 19:41 64.71549 40.43494 4261 ft 272 kts 272°
2026-05-04 19:41 64.71700 40.39138 5304 ft 272 kts 270°
2026-05-04 19:41 64.71838 40.34745 6359 ft 272 kts 271°
2026-05-04 19:42 64.71999 40.30428 7392 ft 273 kts 272°
2026-05-04 19:42 64.72184 40.26019 8370 ft 275 kts 274°
2026-05-04 19:42 64.72579 40.21718 9301 ft 280 kts 288°
2026-05-04 19:42 64.73616 40.17884 10248 ft 285 kts 308°
2026-05-04 19:43 64.74931 40.14460 11120 ft 288 kts 309°
2026-05-04 19:43 64.76261 40.10973 12010 ft 289 kts 307°
2026-05-04 19:43 64.77647 40.07535 12868 ft 294 kts 314°
2026-05-04 19:43 64.79325 40.04873 13662 ft 304 kts 333°
2026-05-04 19:44 64.81448 40.04120 14409 ft 321 kts
2026-05-04 19:44 64.83572 40.05845 15151 ft 334 kts 30°